Location: Ellikon an der Thur
(47.5650°N, 8.8256°E)
Time: 15:42:23
(UTC+00:00)

Daily predictions for brighter satellites

Satellite Brightness Start Highest point End
(mag) Time Altitude Azimuth Time Altitude Azimuth Time Altitude Azimuth
Cosmos 1515 3.9 19:40:56 10° S 19:44:37 52° E 19:48:17 10° NNE
CZ-4B R/B 1.4 19:41:53 10° NNE 19:45:02 54° E 19:48:07 10° S
SPOT 1/Viking Rocket 3.7 19:41:14 10° SSE 19:46:21 67° ENE 19:51:28 10° N
Helios 1A Rocket 4.3 19:43:37 10° ESE 19:46:53 25° ENE 19:50:09 10° N
Resurs 1-3 4.4 19:42:53 10° S 19:47:10 53° W 19:51:30 10° NNW
Meteor 1-27 Rocket 3.9 19:41:40 10° S 19:47:20 62° E 19:53:09 10° NNE
Cosmos 1633 Rocket 3.8 19:46:46 10° NNW 19:51:03 54° W 19:55:17 10° S
Cosmos 2219 3.6 19:46:42 10° NNW 19:52:17 64° WSW 19:57:48 10° SSE
SJ 16-02 2.3 19:50:25 10° SSE 19:54:06 27° E 19:57:50 10° NE
Cosmos 1315 Rocket 4.3 19:50:29 10° NNW 19:54:16 37° W 19:57:59 10° SSW
Cosmos 1340 2.7 19:51:17 10° S 19:54:56 59° E 19:58:38 10° NNE
Cosmos 2082 3.7 19:53:29 10° NNW 19:59:09 80° ENE 20:04:46 10° SSE
Meteor 1-11 Rocket 4.1 19:54:11 10° NNW 20:00:10 75° W 20:06:05 10° S
Cosmos 482 Debris 4.0 19:58:50 10° WNW 20:01:25 64° NNE 20:05:19 10° ESE
Cosmos 2263 Rocket 2.7 19:56:50 10° NNW 20:02:14 46° NE 20:07:29 10° SE
Cosmos 1470 Rocket 3.8 19:58:09 10° NNW 20:02:28 69° W 20:06:44 10° S
Cosmos 1743 2.7 20:01:55 10° N 20:05:43 86° W 20:09:29 10° S
Ariane Rocket 3.0 20:01:08 10° SSE 20:06:12 89° W 20:11:20 10° NNW
SPOT 5 3.7 20:06:30 10° SE 20:11:22 42° ENE 20:16:10 10° N
BREEZE-M DEB (TANK) 2.2 20:08:48 10° W 20:11:34 62° NNW 20:13:44 10° ENE
IRAS Rocket 4.3 20:06:05 10° NNE 20:11:45 85° ESE 20:17:23 10° SSW
Terra 3.0 20:09:04 11° ESE 20:13:03 30° ENE 20:17:09 10° N
Resurs 01 Rocket 2.2 20:10:41 10° S 20:15:00 55° W 20:19:21 10° NNW
Aureole 1 Rocket 2.5 20:13:52 10° SSW 20:17:01 65° WNW 20:19:59 10° NNE
Cosmos 1515 Rocket 3.8 20:13:21 10° SSW 20:17:42 72° W 20:22:07 10° N
Cosmos 1809 Rocket 4.5 20:12:16 10° N 20:18:25 77° E 20:24:35 10° SSE
Cosmos 2227 Rocket 3.5 20:14:58 10° NW 20:20:05 36° WSW 20:25:10 10° S
Cosmos 921 Rocket 3.1 20:16:54 10° NNW 20:21:27 83° WSW 20:25:38 12° SSE
Cosmos 783 Rocket 4.5 20:21:54 10° NNW 20:27:08 80° ENE 20:31:34 14° SSE
Cosmos 1980 Rocket 2.2 20:24:14 10° SSW 20:29:52 82° ESE 20:35:34 10° NNE
CARTOSAT-1 3.6 20:26:14 11° S 20:30:25 80° WSW 20:34:46 10° NNW
Cosmos 1869 Rocket 3.6 20:26:20 10° N 20:30:50 70° E 20:34:33 15° SSE
SL-24 R/B - RUBIN 2 4.1 20:26:48 10° NNW 20:31:04 49° NE 20:34:41 15° ESE
Cosmos 2228 Rocket 3.3 20:29:01 11° S 20:33:22 56° E 20:37:49 10° NNE
Cosmos 1464 Rocket 4.3 20:28:19 10° SSW 20:34:30 71° W 20:40:40 10° N
Cosmos 1378 3.6 20:34:31 17° SSE 20:36:56 40° E 20:40:23 10° NNE
Cosmos 2344 3.5 20:30:40 10° SW 20:38:10 86° SE 20:45:56 10° NE
Cosmos 2322 Rocket 3.5 20:36:17 16° SE 20:38:43 20° E 20:42:44 10° NE
Cosmos 1777 Rocket 4.1 20:34:02 10° S 20:39:07 58° ESE 20:44:17 10° NNE
ISS -3.8 20:35:49 10° WNW 20:39:12 89° SSW 20:41:27 19° ESE
Cosmos 2369 3.9 20:33:56 10° SSW 20:39:35 76° WNW 20:45:17 10° NNE
Spot 2 Rocket 3.5 20:35:42 15° SSE 20:39:53 76° ENE 20:44:57 10° NNW
Cosmos 1354 Rocket 4.0 20:35:04 10° SSW 20:40:21 90° NW 20:45:42 10° NNE
SPOT 3 Rocket 3.7 20:36:10 11° S 20:41:06 70° WSW 20:46:16 10° NNW
Cosmos 773 Rocket 4.0 20:35:54 10° NNW 20:41:09 80° WSW 20:45:19 16° SSE
Cosmos 1844 Rocket 4.2 20:36:56 10° N 20:41:32 25° NE 20:46:05 10° E
ATLAS 2AS CENTAUR R/B 2.9 20:35:07 10° SSW 20:42:51 70° SE 20:50:23 10° NE
Okean 1 3.4 20:40:41 10° SSW 20:44:41 80° WNW 20:48:43 10° N
Meteor 2-4 Rocket 4.1 20:40:22 14° SSE 20:45:10 49° E 20:50:36 10° NNE
H-2A R/B 4.4 20:42:20 10° N 20:45:37 24° WNW 20:48:54 10° WSW
Meteor 1-19 Rocket 4.1 20:41:22 10° S 20:46:48 90° WNW 20:52:14 10° NNE
Cosmos 1092 Rocket 4.0 20:40:56 10° N 20:47:09 74° E 20:52:05 16° SSE
Nadezhda 4 Rocket 4.3 20:41:44 10° NNW 20:47:55 67° W 20:54:00 10° S
RESURS DK-1 2.2 20:44:35 10° SSW 20:48:41 76° ESE 20:52:50 10° NNE
Cosmos 1697 Rocket 4.1 20:43:36 10° SW 20:48:57 42° NW 20:54:20 10° NNE
SL-4 R/B 4.0 20:46:25 10° W 20:49:43 20° SW 20:52:09 13° S
USA 267 4.5 20:47:55 10° ENE 20:53:57 41° N 20:59:59 10° WNW
Cosmos 1634 Rocket 4.1 20:49:58 14° S 20:55:11 60° E 21:01:16 10° NNE
ARIANE 5 R/B 2.9 20:53:39 21° SE 20:56:27 58° ENE 21:00:53 10° N
ATLAS CENTAUR R/B 3.7 20:53:11 10° NNW 20:57:03 22° NNE 21:00:48 10° E
Cosmos 1707 Rocket 3.8 20:54:13 20° SSE 20:57:04 53° E 21:01:22 10° NNE
Cosmos 44 Rocket 3.2 20:53:48 10° NW 20:58:34 88° ENE 21:01:28 23° SE
Cosmos 2227 4.2 20:58:21 10° NNW 21:04:09 86° ENE 21:07:59 22° SSE
Cosmos 158 Rocket 4.0 21:00:51 10° NNW 21:06:00 83° WSW 21:09:24 22° SSE
ATLAS 3B R/B 3.0 21:00:21 10° NW 21:07:42 74° NE 21:13:24 19° SE
NOSS 2-1 (E) 3.2 21:08:10 33° SSE 21:08:59 40° SE 21:12:02 10° NE
Cosmos 1975 2.9 21:07:09 10° NNW 21:11:13 77° W 21:13:33 24° S
Cosmos 2026 Rocket 4.0 21:06:12 10° N 21:12:24 85° W 21:17:00 19° S
USA 81 4.0 21:09:01 20° S 21:12:43 74° E 21:18:00 10° N
ERS-1 Rocket 3.3 21:12:32 19° S 21:16:05 63° WSW 21:21:07 10° NNW
SL-16 R/B 2.3 21:13:28 17° S 21:17:39 55° ESE 21:23:12 10° NE
Meteor 1-4 Rocket 3.3 21:15:19 10° N 21:18:34 37° ENE 21:19:36 29° ESE
CZ-4C R/B 4.2 21:13:13 10° NNW 21:19:14 33° NNE 21:26:17 10° E
Cosmos 1538 Rocket 4.0 21:16:06 10° NNW 21:21:23 85° WSW 21:24:18 27° SSE
Helios 1A Rocket 4.2 21:19:01 15° SSW 21:21:50 32° W 21:25:28 10° NNW
CZ-2C R/B 4.0 21:18:51 10° N 21:23:37 72° WNW 21:27:47 13° SSW
GENESIS II 4.0 21:20:46 14° SSW 21:24:03 76° SE 21:27:59 10° NE
Cosmos 1733 Rocket 3.0 21:21:02 10° N 21:25:32 89° E 21:27:44 30° S
Meteor 2-8 Rocket 4.4 21:25:01 16° S 21:29:56 86° W 21:36:04 10° N
OE (NEXTSAT) 4.1 21:27:56 10° W 21:31:12 67° S 21:32:08 42° ESE
Geosat 4.0 21:28:35 28° SE 21:31:19 76° ENE 21:36:21 10° NNW
EP 1 4.4 21:29:19 18° SW 21:31:37 86° SE 21:34:23 10° NE
SAR-Lupe-4 3.5 21:28:38 10° NNE 21:32:14 68° ESE 21:33:21 40° S
SJ 16-02 3.0 21:28:35 10° SW 21:32:34 33° WNW 21:36:34 10° N
Cosmos 1356 3.7 21:35:10 42° ESE 21:35:27 44° E 21:38:38 10° NNE
Cosmos 2292 Rocket 4.5 21:34:30 10° NNW 21:37:01 25° W 21:38:16 19° SW
Cosmos 1908 Rocket 4.2 21:32:57 10° N 21:37:06 43° ENE 21:38:37 31° ESE
Cosmos 923 Rocket 4.2 21:34:12 10° NNW 21:39:31 64° ENE 21:42:10 30° SE
Cosmos 1862 Rocket 3.5 21:37:31 28° S 21:39:50 89° W 21:44:21 10° N
Cosmos 2360 Rocket 2.7 21:40:43 30° SSE 21:42:46 41° ESE 21:48:03 10° NE
Cosmos 1937 Rocket 4.4 21:42:39 27° SE 21:43:56 31° E 21:48:31 10° NE
Cosmos 1726 3.2 21:41:03 10° N 21:44:24 32° ENE 21:45:09 29° E
Cosmos 2263 Rocket 3.4 21:41:06 10° NW 21:45:57 31° WSW 21:49:11 18° SSW
ALOS 2 4.3 21:44:37 17° E 21:46:32 23° ENE 21:50:01 10° NNE
Meteor 1-13 Rocket 4.3 21:44:30 30° SSE 21:47:11 61° E 21:52:38 10° NNE
Cosmos 2266 Rocket 4.2 21:42:03 10° N 21:48:14 59° ENE 21:51:20 29° SE
NOSS 2-1 (C) 3.2 21:46:44 14° SW 21:49:22 61° NW 21:52:36 10° NE
SPOT 5 4.5 21:45:43 14° SSW 21:49:31 30° W 21:54:01 10° NW
Terra 2.9 21:47:57 20° SSW 21:50:41 37° W 21:55:07 10° NNW
Cosmos 1441 Rocket 3.1 21:51:03 41° SSW 21:52:16 81° W 21:56:01 10° N
Cosmos 1346 Rocket 3.8 21:50:23 18° SW 21:53:01 42° WNW 21:56:53 10° N
Cosmos 2279 Rocket 4.1 21:53:30 21° SSW 21:57:44 75° W 22:03:59 10° N
NOSS 2-1 (D) 3.7 21:56:58 12° WSW 21:59:51 47° NW 22:03:02 10° NNE
Cosmos 2112 Rocket 4.3 21:54:47 10° NNW 22:00:06 62° ENE 22:02:27 32° SE
USA 215 3.5 21:54:03 10° ENE 22:00:18 44° SE 22:03:42 25° S
Cosmos 990 Rocket 3.9 21:57:54 28° SSW 22:00:44 83° ESE 22:06:01 10° NNE
Cosmos 2278 Rocket 4.4 21:57:12 10° N 22:01:08 19° NE 22:05:02 10° E
Cosmos 1680 Rocket 3.6 21:55:52 10° NNW 22:01:12 73° ENE 22:03:26 35° SE
MINOTAUR IV R/B 4.5 22:00:16 31° SSW 22:02:24 89° W 22:06:56 10° NNE
Iridium 2 4.3 21:59:37 10° NNW 22:03:16 49° W 22:04:23 36° SW
Cosmos 1842 4.3 22:03:47 30° E 22:04:04 30° E 22:07:31 10° NNE
Meteor 1-12 Rocket 4.3 22:00:14 10° N 22:06:13 86° E 22:08:53 34° SSE
Cosmos 1066 Rocket 4.3 22:05:06 27° SSW 22:08:23 80° W 22:14:05 10° N
ADEOS Rocket 4.0 22:05:31 19° ESE 22:08:46 34° ENE 22:14:08 10° N
Spot 4 4.1 22:07:13 36° SE 22:08:59 60° ENE 22:13:43 10° N
Cosmos 1818 3.6 22:04:05 10° NW 22:09:34 75° NE 22:12:08 32° SE
Iridium 4 Rocket 3.3 22:07:31 10° N 22:12:06 73° E 22:13:44 42° SSE
Cosmos 1898 Rocket 3.5 22:11:50 35° S 22:14:05 74° ESE 22:19:25 10° NNE
ISS -1.5 22:13:15 10° W 22:14:21 15° WSW 22:14:21 15° WSW
Cosmos 1900 4.4 22:15:19 40° S 22:16:55 60° ESE 22:21:59 10° NE
Okean 1-7 2.9 22:17:25 47° S 22:18:40 86° E 22:23:03 10° N
Iridium 51 4.2 22:21:01 52° SW 22:21:31 59° W 22:25:03 10° N
Cosmos 2322 Rocket 2.4 22:18:02 18° SW 22:22:11 69° WNW 22:27:49 10° NNE
Okean 3 3.4 22:25:02 54° S 22:25:55 79° E 22:30:11 10° NNE
Cosmos 1844 Rocket 2.7 22:20:22 10° NNW 22:25:55 67° WSW 22:27:57 39° S
Cosmos 2322 4.4 22:25:29 34° SE 22:26:48 38° ESE 22:32:04 10° NE
Cosmos 2333 Rocket 2.4 22:25:18 39° SSE 22:26:59 52° ESE 22:32:29 10° NE
Cosmos 1805 4.3 22:23:58 10° NNW 22:27:33 35° W 22:28:28 31° WSW
H-2A R/B 3.5 22:27:45 10° NNE 22:31:49 58° ESE 22:32:20 53° SE
Cosmos 1461 3.9 22:28:05 10° NNW 22:32:02 42° NE 22:33:55 26° E
BREEZE-M DEB (TANK) 3.6 22:30:03 10° W 22:31:52 28° SW 22:31:52 28° SW
ATLAS 2AS CENTAUR R/B 4.2 22:27:06 10° WSW 22:34:22 41° NW 22:41:21 10° NE
USA 267 3.5 22:29:56 10° ESE 22:36:26 69° NNE 22:42:56 10° NW
Meteor 1-23 Rocket 4.2 22:34:01 37° S 22:36:30 88° ESE 22:42:22 10° NNE
ATLAS CENTAUR R/B 1.6 22:31:36 10° NW 22:36:31 89° SW 22:37:50 48° SE
Cosmos 1766 3.8 22:39:00 10° NNW 22:42:46 45° W 22:43:23 42° WSW
Cosmos 2219 Rocket 2.3 22:44:47 42° SSE 22:46:20 56° ESE 22:51:48 10° NE
Cosmos 1844 4.1 22:43:58 10° NW 22:49:36 54° WSW 22:51:27 38° SSW
Cosmos 1703 Rocket 4.2 22:48:15 34° SW 22:49:45 49° WNW 22:54:04 10° N
Cosmos 372 Rocket 3.8 22:51:17 45° SSW 22:52:54 83° ESE 22:58:06 10° NNE
ATLAS 3B R/B 3.9 22:51:41 10° NW 22:57:58 31° WSW 23:00:38 25° SW
Cosmos 1707 2.6 23:00:36 67° ESE 23:00:49 69° E 23:04:41 10° NNE
NOSS 3-1 (A) 4.2 22:54:43 10° NW 23:02:03 74° NE 23:08:57 17° SE
SL-16 R/B 3.9 22:57:08 10° WSW 23:02:05 30° NW 23:07:03 10° NNE
Cosmos 1782 Rocket 4.2 22:59:51 10° NNW 23:04:00 44° W 23:04:50 39° SW
ERS-2 2.0 23:03:04 10° NNE 23:06:42 79° WNW 23:06:52 76° WSW
Okean 2 3.6 23:06:39 51° ESE 23:07:01 53° E 23:11:01 10° NNE
CZ-4C R/B 3.0 23:01:29 10° NW 23:08:41 87° NE 23:14:17 24° SE
NOSS 3-1 (C) 4.1 23:01:56 10° NW 23:09:23 73° SW 23:14:03 30° SSE
USA 290 3.4 23:10:46 34° ENE 23:10:46 34° ENE 23:13:03 10° NE
Cosmos 1238 Rocket 3.3 23:09:27 10° N 23:11:57 37° ENE 23:11:57 37° ENE
Gblst 52 Del rocket 4.4 23:08:58 10° WSW 23:15:21 78° NNW 23:21:03 10° ENE
Cosmos 2237 Rocket 3.4 23:14:56 25° SE 23:16:10 27° ESE 23:20:52 10° NE
KORONAS-FOTON 3.8 23:16:49 64° ESE 23:16:56 64° E 23:20:44 10° NNE
Cosmos 1470 3.3 23:15:07 10° NNW 23:18:49 44° W 23:19:01 43° WSW
Cosmos 1726 4.0 23:16:31 10° NW 23:19:10 19° W 23:19:26 19° W
COSMOS 2428 2.7 23:17:53 44° S 23:19:42 72° ESE 23:25:23 10° NNE
Cosmos 1300 Rocket 3.8 23:15:55 10° NNW 23:20:11 55° W 23:20:51 49° SW
Cosmos 1745 Rocket 4.4 23:15:59 10° N 23:22:07 56° ENE 23:25:01 31° SE
ALOS 2 3.2 23:22:00 39° WSW 23:22:38 42° W 23:26:50 10° NNW
PSLV R/B 3.8 23:18:35 10° NNE 23:22:55 56° E 23:23:40 49° SE
Cosmos 2151 Rocket 3.6 23:18:40 10° N 23:23:05 73° E 23:23:57 55° SE
USA 305 4.0 23:26:44 29° ESE 23:26:44 29° ESE 23:29:26 10° ENE
Cosmos 1937 Rocket 4.5 23:22:46 22° WSW 23:25:44 41° WNW 23:30:46 10° N
Cosmos 1242 Rocket 2.5 23:22:35 10° NNW 23:26:06 75° W 23:26:06 75° W
Cosmos 2360 Rocket 3.4 23:22:25 14° WSW 23:26:50 37° NW 23:32:05 10° NNE
Okean 2 Rocket 3.0 23:22:37 10° N 23:27:11 89° W 23:28:05 58° S
Cosmos 405 Rocket 3.2 23:28:20 45° E 23:28:25 45° E 23:32:02 10° NNE
Cosmos 1943 Rocket 4.3 23:25:27 10° N 23:29:58 24° NE 23:34:28 10° E
In-Cosmos 22 4.1 23:29:31 43° SSW 23:31:27 82° WNW 23:36:57 10° N
Cosmos 1437 Rocket 3.2 23:29:25 10° N 23:33:03 47° ENE 23:33:33 44° ESE
Nimbus 7 Rocket 4.3 23:28:08 10° NNE 23:34:02 77° ESE 23:36:12 41° S
Cosmos 1908 3.0 23:30:46 10° N 23:34:35 84° E 23:34:48 78° SE
Cosmos 1867 3.5 23:33:44 42° SSW 23:35:41 86° SE 23:41:12 10° NE
Cosmos 2298 Rocket 4.4 23:34:33 40° SSE 23:35:53 50° ESE 23:41:00 10° NNE
Meteor 1-21 4.4 23:34:35 38° SSW 23:36:51 71° WNW 23:42:40 10° N
Cosmos 1626 1.9 23:37:36 86° S 23:37:41 90° E 23:41:22 10° N
SL-08 R/B 4.5 23:32:38 10° N 23:38:56 78° W 23:41:27 39° S
USA 215 3.5 23:37:01 10° NE 23:43:33 71° NNW 23:50:04 10° WSW
Cosmos 1953 2.6 23:40:06 10° N 23:44:04 59° ENE 23:44:46 50° ESE
Cosmos 2278 Rocket 2.2 23:40:27 10° NNW 23:46:10 80° ENE 23:48:51 33° SE
Cosmos 468 4.4 23:42:10 10° NNW 23:47:26 81° WSW 23:49:03 45° S
Cosmos 1674 3.0 23:50:45 50° W 23:51:04 51° WNW 23:54:45 10° N
Sich 1 Rocket 4.3 23:49:16 10° NNW 23:53:21 38° W 23:54:00 36° WSW
ADEOS Rocket 3.5 23:52:27 34° SW 23:54:11 42° W 23:59:52 10° NNW
